Location: Gälforsberget
(66.6500°N, 22.4167°E)
Time: 20:36:20
(UTC+00:00)

Cosmos 676 Rocket - Pass Details

Date: 11 April 2026
Orbit: 750 x 779 km, 74.0° (Epoch: 16 May)

Event Time Altitude Azimuth Distance (km) Brightness Sun altitude
Rises 21:20:30 0° 312° (NW) 3,277 8.4 -13.7°
Reaches altitude 10° 21:22:55 10° 315° (NW) 2,346 7.5 -13.8°
Maximum altitude 21:28:15 68° 38° (NE) 841 4.3 -13.9°
Enters shadow 21:33:19 11° 122° (ESE) 2,245 6.0 -14.0°
